Regional Weather Roundup
Issued by NWS Wilmington, NC

Home | Current Version | Previous Version | Text Only | Print | Product List | Glossary On
Versions: 1 2 3 4 5 6 7 8 9 10 11 12 13 14 15 16 17 18 19 20 21 22 23 24 25 26 27
000
ASUS42 KILM 161313
RWRILM
RWRILM
REGIONAL HOURLY WEATHER ROUNDUP
NATIONAL WEATHER SERVICE WILMINGTON NC
800 AM EST SAT DEC 16 2017

NOTE: "FAIR" INDICATES FEW OR NO CLOUDS BELOW 12,000 FEET WITH NO
SIGNIFICANT WEATHER AND/OR OBSTRUCTIONS TO VISIBILITY.

...............WFO WILMINGTON COUNTY WARNING AREA...............

......COASTAL NC AND SC COUNTIES......

CITY           SKY/WX    TMP DP  RH WIND       PRES   REMARKS
WILMINGTON     MOCLDY    31  29  92 CALM      30.29R
N MYRTLE BEACH CLEAR     33  30  88 CALM      30.28R
MYRTLE BEACH   CLEAR     34  30  85 CALM      30.31R

......INLAND NC AND SC COUNTIES.......

CITY           SKY/WX    TMP DP  RH WIND       PRES   REMARKS
LUMBERTON      CLOUDY    28  26  92 CALM      30.28R
ELIZABETHTOWN  NOT AVBL
WHITEVILLE     CLOUDY    30  28  92 CALM      30.28R
FLORENCE       CLOUDY    29  27  92 CALM      30.30R FOG
DARLINGTON     PTCLDY    27  26  96 SW3       30.30R
KINGSTREE      FAIR      28  28 100 CALM      30.30R
HARTSVILLE     FAIR      28  25  86 CALM      30.28R
BENNETTSVILLE  FAIR      28  28 100 CALM      30.29R FOG
CONWAY         FAIR      28  28 100 CALM      30.30R FOG
GEORGETOWN     FAIR      32  32 100 CALM      30.30R
MARION         FAIR      30  28  93 CALM      30.30R FOG

....................REST OF NORTH CAROLINA......................

.........EASTERN NC.........

CITY           SKY/WX    TMP DP  RH WIND       PRES   REMARKS
CAPE HATTERAS  CLEAR     39  28  64 VRB6      30.23R WCI  35
JACKSONVILLE   CLOUDY    29  27  92 SW3       30.28R
MOREHEAD CITY  CLEAR     36  26  67 N8        30.27R WCI  30
KENANSVILLE    CLOUDY    25  23  93 CALM      30.27R FOG
NEW BERN       CLEAR     29  26  89 SW3       30.28R
ELIZABETH CITY CLEAR     28  25  88 NW5       30.25R WCI  23

.........CENTRAL NC.........

CITY           SKY/WX    TMP DP  RH WIND       PRES   REMARKS
RALEIGH DURHAM PTCLDY    25  20  81 CALM      30.25R
ROCKY MOUNT    CLEAR     26  22  84 S3        30.25R
ROANOKE RAPIDS NOT AVBL
FAYETTEVILLE   CLOUDY    28  25  88 SW3       30.27R
HOFFMAN        PTCLDY    22  21  93 CALM      30.27R

.........WESTERN NC.........

CITY           SKY/WX    TMP DP  RH WIND       PRES   REMARKS
CHARLOTTE      CLOUDY    28  26  92 CALM      30.25R
GREENSBORO     PTCLDY    27  20  75 W5        30.22R WCI  22
HICKORY        NOT AVBL
BOONE          NOT AVBL
ASHEVILLE      NOT AVBL

.....................REST OF SOUTH CAROLINA.....................

.........EASTERN SC.........

CITY           SKY/WX    TMP DP  RH WIND       PRES   REMARKS
CHARLESTON     PTCLDY    33  28  81 N7        30.29R WCI  27
BEAUFORT MCAS  CLOUDY    37  30  75 NW5       30.30R WCI  33
HILTON HEAD    CLEAR     39  30  70 NW7       30.29R WCI  34

.........CENTRAL SC.........

CITY           SKY/WX    TMP DP  RH WIND       PRES   REMARKS
COLUMBIA       CLOUDY    29  27  92 CALM      30.28R
ORANGEBURG     CLOUDY    30  26  85 CALM      30.29R
SUMTER SHAW    CLOUDY    28  25  88 CALM      30.26R

.........WESTERN SC.........

CITY           SKY/WX    TMP DP  RH WIND       PRES   REMARKS
GREENVILLE     NOT AVBL
ROCK HILL      CLOUDY    23  21  92 SW3       30.26R
ANDERSON       CLOUDY    25  22  88 CALM      30.26R
CLEMSON        NOT AVBL
GREENWOOD      CLOUDY    23  22  96 CALM      30.28R


...................COASTAL AND OFFSHORE REPORTS..................

................LOCAL PIERS AND NC RESERVE................


STATION/POSITION TIME  SKY/WX   TEMP    WIND        PRES    VSBY
                                AIR SEA DIR/SP/G
                 (UTC)          (F)     (DEG/KT/KT) (MB)    (MI)
JOHNY MRCER PIER 1236            35 55  310/  5/  7 1025.2R
NC RESRV MASNBRO 1145            32        CALM     1024.0
OCEAN CREST PIER NOT AVBL
SPRINGMAID  PIER 1236                               1028.4R


................COASTAL AND OFFSHORE BUOYS................


STATION/POSITION TIME  SKY/WX   TEMP    WIND        PRES    VSBY
                                AIR SEA DIR/SP/G
                 (UTC)          (F)     (DEG/KT/KT) (MB)    (MI)
DIMNDSHOAL 41025 1250            44 72  330/ 16/ 21 1023.6R
WVE H/P(F/S)=  5/ 8 SWL H/P/D(F/S/D)=  3/200/ 8

CAPE LOOKOUT     1200                   340/ 12/ 14 1024.1R
ONSLOW BAY 41036 NOT AVBL
ONSLOW BAY 41064 1208            44 64   20/ 14/ 17 1024.1R
ONSLOW BAY 41159 1300               64                N/A
WVE H/P(F/S)=  4/ 4

MASNBO INL 41110 1259               56                N/A
WVE H/P(F/S)=  2/ 7

WILM HARBR 41108 1300               57                N/A
WVE H/P(F/S)=  3/ 6

27SE WRITB 41037 1208            45 63   10/ 14/ 25 1023.9R
FRYING PAN 41013 1250            47      10/ 16/ 21 1024.5R
WVE H/P(F/S)=  4/ 5 SWL H/P/D(F/S/D)=  2/ 70/11

SUNST NRSH 41024 1208            38      20/  8/ 12 1024.7R
CAPRS NRSH 41029 1208            39 55  350/ 14/ 19 1024.4R
EDISTO     41004 1250            52 72  360/ 10/ 16 1024.1R
WVE H/P(F/S)=  3/ 5 SWL H/P/D(F/S/D)=  2/220/ 5



..........OFFSHORE BUOYS BEYOND 100 NM OFFSHORE...........
.....IN A TRIANGLE---HAT TO BERMUDA TO BAHAMAS TO HAT.....


STATION/POSITION TIME  SKY/WX   TEMP    WIND        PRES    VSBY
                                AIR SEA DIR/SP/G
                 (UTC)          (F)     (DEG/KT/KT) (MB)    (MI)
150E HAT   41001 NOT AVBL
W BERMUDA  41048 1250            70 74  330/ 19/ 25 1018.9R
WVE H/P(F/S)= 11/ 9 SWL H/P/D(F/S/D)=  8/270/ 9

ATLANTIC S 41049 1150            76 77  260/ 12/ 16 1021.5
WVE H/P(F/S)=  6/10 SWL H/P/D(F/S/D)=  7/310/10

E BAHAMAS  41046 1250            79 80   70/  4/  6 1022.3R
WVE H/P(F/S)=  5/ 9 SWL H/P/D(F/S/D)=  5/ 60/ 9

NE BAHAMAS 41047 1250            70     320/ 17/ 21 1021.6R
WVE H/P(F/S)=  5/ 7 SWL H/P/D(F/S/D)=  3/100/ 9

120E CANVRL41010 NOT AVBL

END




USA.gov is the U.S. government's official web portal to all federal, state and local government web resources and services.